Regional & State Weather Roundups


815 
ASUS44 KHUN 200010
RWRHUN
       
WEATHER ROUNDUP FOR THE TENNESSEE VALLEY
NATIONAL WEATHER SERVICE HUNTSVILLE AL
600 PM CST SAT JAN 19 2019
ALZ001>004-200100-
NORTHWEST ALABAMA
  
CITY           SKY/WX    TMP DP  RH WIND       PRES   REMARKS
COURTLAND HCN    N/A     32 N/A N/A W21         N/A  WCI  20          
RUSSELLVILLE     N/A     32 N/A N/A MISG        N/A                   
SHOALS AIRPORT LGT RAIN  43  38  82 NW23G33   29.65R                  
6HR MIN TEMP:  43; 6HR MAX TEMP:  65; 6HR PCP:  0.18;                
SHOALS TVA RES   N/A     32 N/A N/A MISG        N/A                   
$$
ALZ005>007-016-200100-
NORTH CENTRAL ALABAMA
  
CITY           SKY/WX    TMP DP  RH WIND       PRES   REMARKS
CULLMAN AG STN   N/A     57 N/A N/A SW7         N/A                   
DECATUR AP     MOCLDY    48  43  82 W28G35    29.59R                  
6HR MIN TEMP:  48; 6HR MAX TEMP:  62; 6HR PCP:  0.35;                
HUNTSVILLE AP  CLOUDY    52  47  83 W25G37    29.56R                  
6HR MIN TEMP:  52; 6HR MAX TEMP:  62; 6HR PCP:  0.51;                
MERIDIANVILLE  CLOUDY    55  50  83 W13G24    29.53R                  
REDSTONE ARSN  CLOUDY    53  49  85 NW20G28   29.55R                  
VINEMONT AP    CLOUDY    53  49  84 W13       29.58R                  
$$
 
ALZ008>010-200100-
NORTHEAST ALABAMA
  
CITY           SKY/WX    TMP DP  RH WIND       PRES   REMARKS
ALBERTVILLE    CLOUDY    55  52  88 SW9       29.55R                  
FORT PAYNE     CLOUDY    56  54  93 SW9       29.52R                  
SCOTTSBORO AP  DRIZZLE   57  57 100 SW9       29.53R                  
SCOTTSBORO HCN   N/A     32 N/A N/A MISG        N/A                   
VALLEY HEAD      N/A     32 N/A N/A MISG        N/A                   
$$
TNZ076-096-097-200100-
SOUTHEASTERN MIDDLE TENNESSEE
  
CITY           SKY/WX    TMP DP  RH WIND       PRES   REMARKS
TULLAHOMA      CLOUDY    55  52  88 W20G28    29.47R                  
WINCHESTER     CLOUDY    55  52  88 SW10G18   29.48R                  
$$
 
...SURROUNDING SITES...
  
CITY           SKY/WX    TMP DP  RH WIND       PRES   REMARKS
ATLANTA        RAIN      59  56  89 S7        29.55F                  
ANNISTON       CLOUDY    56  54  93 SW8       29.57R                  
BIRMINGHAM     LGT RAIN  57  54  89 W10       29.59R                  
CHATTANOOGA    MOCLDY    58  53  84 SW7       29.50R                  
CORINTH        DRIZZLE   37  34  87 NW22G28   29.73R WCI  27          
DALTON         MOCLDY    59  57  94 S5        29.52S                  
GADSDEN        MOCLDY    55  55 100 SW5       29.56R                  
GOLDEN TRNGL   CLOUDY    45  40  82 W16G31    29.74R                  
HALEYVILLE     CLOUDY    43  40  89 NW14G23   29.66R                  
JACKSON TN     LGT SNOW  32  29  88 NW24G39   29.76R FOG     WCI  19  
MEMPHIS        LGT SNOW  33  31  92 NW16G31   29.86R FOG     WCI  23  
NASHVILLE      MOCLDY    46  41  82 W16G28    29.52R                  
OXFORD MS      DRIZZLE   34  32  93 NW21G31   29.84R WCI  22          
ROME           MOCLDY    59  56  89 S6        29.51S                  
SAVANNAH       CLOUDY    37  34  87 NW14G25   29.69R WCI  29          
SELMER         CLOUDY    34  32  93 NW16G22   29.71R WCI  23          
TUPELO         CLOUDY    41  34  76 NW20G28   29.75R                  
TUSCALOOSA     MOCLDY    54  47  77 W14G24    29.65R                  
$$